パンスターズ彗星

C/2022 N2 ( PanSTARRS )

English version
Home page
Updated on October 14, 2023

---------------------------------------------------------------------

・ プロフィール

発見日 2022年7月4日
発見光度 20.6等
発見者 Pan-STARRS 2 telescope (Haleakala)

・ 写真集

・ 軌道要素

Epoch 2023 Sept. 13.0 TT = JDT 2460200.5
T 2025 July 31.55544 TT                                 Rudenko
q   3.8270311            (2000.0)            P               Q
z  -0.0009952      Peri.   75.34510     +0.81541914     -0.57554510
 +/-0.0000352      Node   319.73995     +0.48734221     +0.74031015
e   1.0038086      Incl.    5.50199     +0.31239270     +0.34740282
>From 234 observations 2022 June 2-2023 Sept. 22, mean residual 0".4.

・ 星図

・ 光度変化

        m1 = 0.5 + 5 logΔ + 15.0 log r

---------------------------------------------------------------------

軌道要素はM.P.E.C. 2023-S260に掲載されたものです。
星図はステラナビゲータ Ver.10 (アストロアーツ) で作成したものです。
光度グラフはComet for Windowsで作成したものです。

---------------------------------------------------------------------

Copyright(C) Seiichi Yoshida (comet@aerith.net). All rights reserved.